Regional Weather Roundup
Issued by NWS

Home | Current Version | Previous Version | Graphics & Text | Print | Product List | Glossary On
Versions: 1 2 3 4 5 6 7 8 9 10 11 12 13 14 15 16 17 18 19 20 21 22 23 24 25 26 27 28 29 30 31 32 33 34 35 36 37 38 39 40 41 42 43 44 45 46 47 48 49 50
186
ASUS45 KTFX 021310
RWRMT
MONTANA REGIONAL WEATHER ROUNDUP
NATIONAL WEATHER SERVICE GREAT FALLS MT
700 AM MDT MON MAY 02 2016

NOTE: "FAIR" INDICATES FEW OR NO CLOUDS BELOW 12000 FEET WITH NO
SIGNIFICANT WEATHER AND/OR OBSTRUCTIONS TO VISIBILITY.

MTZ001>007-043-021400-
WEST OF THE DIVIDE

CITY           SKY/WX    TMP DP  RH WIND       PRES   REMARKS
KALISPELL      CLEAR     37  35  92 N5        30.17S
MISSOULA       CLEAR     35  31  85 W3        30.22R
BUTTE          CLEAR     27  23  85 CALM      30.25R
MULLAN PASS    CLEAR     45  29  53 SE9       30.20S
ANACONDA         N/A     36  27  69 S6        30.23R WCI  31
DEER LODGE       N/A     28  25  86 W3        30.26R
EUREKA           N/A     34  30  86 CALM      30.20R
HAMILTON         N/A     37  32  81 E5        30.20R
LIBBY            N/A     34  30  86 CALM      30.20R
PLAINS           N/A     34  29  82 CALM      30.18R
$$

MTZ008-052>055-021400-
SOUTHWEST MONTANA

CITY           SKY/WX    TMP DP  RH WIND       PRES   REMARKS
BOZEMAN        CLOUDY    33  29  85 SE5       30.24R
DILLON         CLEAR     34  27  75 S9        30.23R WCI  27
ENNIS          CLEAR     34  27  75 W3        30.29R
TWIN BRIDGES     N/A     29  21  71 CALM      30.19S
$$

MTZ009-010-012-014-046-048-049-054-021400-
EAST SLOPES AND CENTRAL MONTANA

CITY           SKY/WX    TMP DP  RH WIND       PRES   REMARKS
CUT BANK       PTCLDY    34  31  88 W7        30.18S WCI  28
GREAT FALLS    PTCLDY    38  34  85 SW7       30.18S
MALMSTROM AFB  CLEAR     37  36  94 SW7       30.19S WCI  32
HELENA         CLEAR     37  31  78 CALM      30.23R
CHOTEAU          N/A     39  34  81 SW7       30.19S
CONRAD           N/A     31  31 100 CALM      30.18R
$$

MTZ011-013-016-021-045-047-050-051-021400-
NORTH CENTRAL MONTANA

CITY           SKY/WX    TMP DP  RH WIND       PRES   REMARKS
HAVRE          CLEAR     38  35  89 SW7       30.17R
LEWISTOWN      CLOUDY    36  30  79 SE5       30.20R
N BAR RANCH      N/A     37  30  75 W7        30.21R
CHINOOK          N/A     39  37  93 CALM      30.18R
$$

MTZ017>020-022>027-061-062-021400-
NORTHEAST MONTANA

CITY           SKY/WX    TMP DP  RH WIND       PRES   REMARKS
GLASGOW        CLOUDY    43  37  79 W7        30.12S
JORDAN           N/A     41  37  86 W5        30.14S
SIDNEY         MOSUNNY   54  32  43 W18       30.06S
WOLF POINT     SUNNY     46  36  68 W8        30.10S
PLENTYWOOD       N/A     48  36  61 W9        30.06S
POPLAR           N/A     46  36  66 CALM      30.10R
SCOBEY           N/A     45  32  60 W5        30.06S
$$

MTZ028>42-056>058-021400-
SOUTHCENTRAL AND SOUTHEAST MONTANA

CITY           SKY/WX    TMP DP  RH WIND       PRES   REMARKS
BAKER          CLOUDY    42  32  67 CALM      30.14R
BILLINGS       PTCLDY    39  31  72 SW15      30.20S WCI  31
LIVINGSTON     CLOUDY    30  24  78 W5        30.23R
MILES CITY     MOSUNNY   40  36  86 CALM      30.15R
EKALAKA          N/A     45  30  55 W2        30.11S
FORSYTH          N/A     39  36  87 SW7       30.16F
LAUREL           N/A     35  27  73 CALM      30.17R
ROUNDUP          N/A     36  29  76 SW8       30.09R WCI  30
$$

REGIONAL REPORTS...DAKOTAS

CITY           SKY/WX    TMP DP  RH WIND       PRES   REMARKS
WILLISTON      SUNNY     52  35  52 W17       30.03S
MINOT          MOSUNNY   55  38  52 CALM      29.97S
DICKINSON      CLOUDY    46  33  60 W15       30.05S
BEACH          CLOUDY    46  34  61 W15       30.13S
CROSBY           N/A     50  36  57 NW16      30.04R
WATFORD CITY   PTSUNNY   50  34  53 W15       30.04F
BISMARCK       CLOUDY    44  40  85 CALM      30.04F
GRAND FORKS    PTSUNNY   53  32  44 S6        30.03S
FARGO          SUNNY     50  32  50 S3        30.06S
BUFFALO SD       N/A     42  33  70 W8        30.07R
RAPID CITY     SUNNY     42  32  67 W7        30.14F
$$

REGIONAL REPORTS...WYOMING/IDAHO/WASHINGTON

CITY           SKY/WX    TMP DP  RH WIND       PRES   REMARKS
GILLETTE       SUNNY     38  31  76 SW10      30.18S WCI  31
SHERIDAN       SUNNY     36  29  75 CALM      30.19R
BUFFALO WY       N/A    N/A N/A N/A MISG      30.20S
CODY           CLEAR     39  27  60 SW8       30.21S
YELLOWSTONE LA   N/A     21  16  81 CALM      30.31R
IDAHO FALLS    CLEAR     32  23  69 N6        30.24R WCI  26
SALMON         CLEAR     30  27  86 CALM      30.23R
BOISE          CLEAR     48  36  63 SE5       30.12R
SPOKANE        PTCLDY    51  40  65 E5        30.10R
$$

REGIONAL REPORTS...ALBERTA

CITY           SKY/WX    TMP DP  RH WIND       PRES   REMARKS
EDMONTON       CLEAR     48  37  66 SW3       30.07S
CALGARY        PTCLDY    43  30  61 S2        30.15R
LETHBRIDGE     PTCLDY    41  34  75 SW10      30.15S
MEDICINE HAT   PTCLDY    45  37  76 SW12      30.13F
WATERTON GATE    N/A     39  28  65 SW8         N/A
MILK RIVER       N/A     37  34  87 NW5         N/A
ONEFOUR          N/A     43  36  75 NW3         N/A
$$

REGIONAL REPORTS...SASKATCHEWAN

CITY           SKY/WX    TMP DP  RH WIND       PRES   REMARKS
SWIFT CURRENT  SUNNY     50  37  62 W14G22    30.09S
REGINA         MOSUNNY   45  36  70 CALM      30.03S
SASKATOON      MOSUNNY   46  37  71 E2        30.05S
CYPRESS HILLS    N/A     50  30  46 NW7         N/A
VAL MARIE        N/A     39  36  87 W2          N/A
ROCKGLEN         N/A     50  36  57 W9          N/A
ASSINIBOIA       N/A     45  39  81 SW1         N/A
$$




USA.gov is the U.S. government's official web portal to all federal, state and local government web resources and services.